"2022-02-20 00:01:00",2817310,11.07067,284.937,4.505494,1.237392,13.44,0,8.171332,281.4008,5.652996,0.8621048,9.43,0,-999,0,5.687,79.67,5.72,5.736,10.57,1.051,0,6.702,13.57,12.14,100.9448,3.292,3.292,3.291,100,0,0,0,335.8,203,203
"2022-02-20 00:02:00",2817311,10.68067,285.7293,6.316142,0.9529495,12.35,0,7.951334,287.7283,7.163836,1.189363,10.34,0,-999,0,5.62,80.1,5.639,5.67,9.52,1.045,0,6.701,13.57,10.95,100.9462,3.292,3.292,3.291,100,0,0,0,335.8,203,203
"2022-02-20 00:03:00",2817312,10.36667,287.7297,5.025284,1.53605,13.07,0,6.915333,284.1309,5.962818,1.035592,9.28,0,-999,0,5.593,80.5,5.588,5.61,10.04,0.753,0,6.701,13.57,11.14,100.962,3.292,3.292,3.291,100,0,0,0,335.8,203,203
"2022-02-20 00:04:00",2817313,11.09933,282.786,8.704453,1.0389,12.61,0,8.499333,283.3351,9.458428,1.316204,11.71,0,-999,0,5.5,80.7,5.515,5.547,11.51,1.372,0,6.701,13.57,13.33,100.9699,3.292,3.293,3.292,100,0,0,0,335.8,203,203
"2022-02-20 00:05:00",2817314,11.94533,281.1991,6.479976,0.8503245,13.55,0,9.323334,286.1347,4.841422,1.48017,11.68,0,-999,0,5.453,80.4,5.476,5.487,11.36,1.6,0,6.701,13.57,13.89,100.9687,3.292,3.292,3.292,100,0,0,0,335.8,203,203
"2022-02-20 00:06:00",2817315,11.36,279.8609,4.466852,1.431857,13.73,0,9.15,277.0704,6.627409,1.863255,12.33,0,-999,0,5.4,79.94,5.454,5.448,11.85,1.105,0,6.701,13.58,13.95,100.9739,3.292,3.293,3.292,100,0,0,0,335.8,203,203
"2022-02-20 00:07:00",2817316,12.448,285.2733,7.939117,1.007692,13.89,0,7.01,280.8645,3.66655,1.048682,9.63,0,-999,0,5.353,80.5,5.373,5.388,10.3,0.939,0,6.701,13.57,11.83,100.9716,3.294,3.294,3.292,100,0,0,0,335.8,203,203
"2022-02-20 00:08:00",2817317,11.31733,277.1997,4.832354,1.036291,13.3,0,8.451333,281.2653,6.522038,0.8016222,9.73,0,-999,0,5.3,81,5.315,5.337,10.23,0.875,0,6.698,13.57,11.64,100.9701,3.296,3.296,3.293,100,0,0,0,335.8,203,203
"2022-02-20 00:09:00",2817318,11.05067,278.2624,6.01365,0.9967177,12.52,0,7.658667,277.0016,8.698431,1.241837,10.39,0,-999,0,5.227,80.9,5.293,5.309,10.74,1.185,0,6.678,13.58,13.01,100.9747,3.297,3.297,3.294,100,0,0,0,335.8,203,203
"2022-02-20 00:10:00",2817319,10.08267,282.3414,6.092568,1.017615,11.79,0,8.826,279.472,5.640814,1.262705,11.19,0,-999,0,5.2,81.1,5.244,5.26,10.87,1.062,0,6.678,13.58,12.83,100.9833,3.299,3.299,3.296,100,0,0,0,335.8,203,203
"2022-02-20 00:11:00",2817320,7.987999,288.4671,5.096484,0.8426006,9.91,0,7.197333,281.6759,5.443483,1.401297,9.71,0,-999,0,5.2,81.2,5.225,5.25,10.69,0.68,0,6.659,13.57,11.76,100.9912,3.299,3.299,3.297,100,0,0,0,335.8,203,203
"2022-02-20 00:12:00",2817321,8.951334,283.5306,3.945963,0.7966586,9.9,0,6.107333,286.9983,3.828465,0.7813873,8.01,0,-999,0,5.16,81.8,5.167,5.186,8.53,0.811,0,6.656,13.57,10.58,100.9989,3.299,3.3,3.298,100,0,0,0,335.8,203,203
"2022-02-20 00:13:00",2817322,7.038,282.8644,6.106496,0.4351735,7.67,0,6.4,278.6682,5.079523,1.135846,8.78,0,-999,0,5.1,82.4,5.148,5.181,8.96,0.695,0,6.656,13.57,10.01,101.003,3.301,3.301,3.299,100,0,0,0,335.8,203,203
"2022-02-20 00:14:00",2817323,9.141333,286.0679,3.567212,0.6871668,10.04,0,5.494,286.801,3.599574,1.152185,7.2,0,-999,0,5.1,82.6,5.116,5.149,8.22,0.773,0,6.642,13.58,9.58,101.0036,3.304,3.304,3.3,100,0,0,0,335.8,203,203
"2022-02-20 00:15:00",2817324,8.997333,285.1362,6.455418,1.226444,10.94,0,6.555334,283.9968,5.53639,0.8003156,7.92,0,-999,0,5.1,82.5,5.124,5.148,7.996,0.615,0,6.634,13.58,8.7,101.0024,3.305,3.305,3.302,100,0,0,0,335.8,203,203
"2022-02-20 00:16:00",2817325,7.713333,282.8948,8.910217,1.050604,9.55,0,5.56,281.6649,4.450741,0.7253964,6.73,0,-999,0,5.073,82.4,5.124,5.138,8.11,0.593,0,6.614,13.58,9.01,101.0012,3.304,3.305,3.304,100,0,0,0,335.8,203,203
"2022-02-20 00:17:00",2817326,8.949334,282.6049,6.868878,0.7435545,9.89,0,7.17,285.0738,7.32799,0.9846014,9.21,0,-999,0,5,82.7,5.069,5.104,9.04,0.718,0,6.607,13.57,10.2,101.0041,3.305,3.305,3.304,100,0,0,0,335.8,203,203
"2022-02-20 00:18:00",2817327,8.372667,286.1384,5.13239,0.6990706,9.67,0,6.845333,283.9348,6.534888,0.6506085,8.07,0,-999,0,5,82.4,5.038,5.058,8.6,0.662,0,6.59,13.57,9.83,101.0091,3.307,3.307,3.304,100,0,0,0,335.8,203,203
"2022-02-20 00:19:00",2817328,10.308,285.2645,3.836174,0.7004684,11.68,0,7.524666,287.4641,7.319821,1.25866,9.68,0,-999,0,5,82.3,5.016,5.032,9.27,0.838,0,6.578,13.58,10.83,101.014,3.309,3.309,3.306,100,0,0,0,335.8,203,203
"2022-02-20 00:20:00",2817329,8.581333,277.6741,6.443411,1.394441,10.99,0,6.379333,280.5561,7.603712,0.9601698,7.92,0,-999,0,4.987,82.1,5.023,5.03,7.712,0.8,0,6.57,13.58,9.39,101.0166,3.31,3.31,3.308,100,0,0,0,335.8,203,203
"2022-02-20 00:21:00",2817330,8.907333,278.5374,7.408138,1.374736,11.8,0,6.889334,281.8571,7.972158,1.15629,9.27,0,-999,0,4.913,82.4,4.988,5.001,8.23,1.178,0,6.558,13.58,10.01,101.0222,3.312,3.312,3.31,100,0,0,0,335.8,203,203
"2022-02-20 00:22:00",2817331,10.62267,284.9337,8.191432,1.219948,13.12,0,6.583333,282.4772,9.170488,1.20244,9.38,0,-999,0,4.9,82.3,4.952,4.964,8.87,0.894,0,6.54,13.58,10.2,101.0188,3.314,3.314,3.311,100,0,0,0,335.8,203,203
"2022-02-20 00:23:00",2817332,10.598,281.0686,3.640581,0.9924527,12.37,0,7.164667,276.7346,4.808075,1.791055,10.16,0,-999,0,4.88,82,4.897,4.915,10.9,1.003,0,6.524,13.58,13.01,101.0208,3.315,3.315,3.312,100,0,0,0,335.8,203,203
"2022-02-20 00:24:00",2817333,8.975332,288.0606,6.31145,1.170389,10.73,0,7.15,285.0486,7.952352,0.8136502,8.56,0,-999,0,4.8,82,4.873,4.896,10.56,0.953,0,6.508,13.58,12.89,101.0196,3.317,3.317,3.315,100,0,0,0,335.8,203,203
"2022-02-20 00:25:00",2817334,9.148667,290.7297,7.145626,0.9411401,10.89,0,7.838666,294.9371,7.404807,1.125758,11.23,0,-999,0,4.8,81.4,4.872,4.887,10,1.053,0,6.486,13.57,12.39,101.0219,3.317,3.318,3.317,100,0,0,0,335.8,203,203
"2022-02-20 00:26:00",2817335,9.533999,291.6775,6.483695,0.8882777,11.36,0,7.488,292.6641,6.319314,1.090616,9.61,0,-999,0,4.8,81.2,4.842,4.836,8.94,1.613,0,6.476,13.57,12.2,101.0282,3.319,3.319,3.317,100,0,0,0,335.8,203,203
"2022-02-20 00:27:00",2817336,10.55133,291.4628,5.01684,0.9797134,12.07,0,8.238666,292.5433,7.141745,1.382408,10.27,0,-999,0,4.713,81.4,4.792,4.786,9.88,1.571,0,6.455,13.57,12.51,101.0355,3.32,3.32,3.318,100,0,0,0,335.8,203,203
"2022-02-20 00:28:00",2817337,10.19867,287.2661,5.12861,0.7947147,11.73,0,8.014667,287.1921,6.632879,1.247589,10.19,0,-999,0,4.7,81.6,4.804,4.801,9.85,1.072,0,6.433,13.58,11.7,101.0337,3.321,3.322,3.32,100,0,0,0,335.8,203,203
"2022-02-20 00:29:00",2817338,9.187334,282.8687,3.592671,1.040317,10.6,0,7.375333,283.0686,5.23278,1.386789,9.68,0,-999,0,4.7,81.9,4.772,4.778,9.58,0.745,0,6.411,13.58,10.89,101.0377,3.323,3.324,3.321,100,0,0,0,335.8,203,203
"2022-02-20 00:30:00",2817339,10.328,286.5319,3.702742,0.7537833,11.97,0,7.534667,285.2643,5.036647,1.365991,9.89,0,-999,0,4.7,82.1,4.772,4.754,9.23,0.727,0,6.393,13.58,10.7,101.0392,3.325,3.325,3.323,100,0,0,0,335.8,203,203
"2022-02-20 00:31:00",2817340,7.473334,282.4576,4.551589,0.8392987,8.85,0,6.108666,281.7998,4.845239,0.9184832,8.07,0,-999,0,4.7,82.4,4.736,4.754,7.646,0.611,0,6.369,13.58,8.83,101.0432,3.327,3.327,3.325,100,0,0,0,335.8,203,203
"2022-02-20 00:32:00",2817341,7.732667,273.9338,5.673285,0.9852813,9.78,0,7.047334,272.3908,5.995136,1.124885,8.4,0,-999,0,4.633,82.8,4.723,4.726,8.28,0.817,0,6.349,13.57,9.95,101.0517,3.328,3.328,3.325,100,0,0,0,335.8,203,203
"2022-02-20 00:33:00",2817342,7.641334,273.1357,4.963569,0.6447518,8.92,0,5.834,273.1276,4.824859,0.5676478,6.58,0,-999,0,4.627,82.6,4.729,4.749,8.02,0.813,0,6.321,13.57,9.26,101.0565,3.329,3.329,3.327,100,0,0,0,335.8,203,203
"2022-02-20 00:34:00",2817343,9.373334,276.8068,5.058558,0.9006712,10.7,0,6.224,274.7292,6.059083,1.428457,8.61,0,-999,0,4.667,82.9,4.748,4.749,8.29,1.053,0,6.306,13.57,10.51,101.0574,3.331,3.331,3.329,100,0,0,0,335.8,203,203
"2022-02-20 00:35:00",2817344,8.093334,267.9266,6.920241,1.797356,11.64,0,6.517333,266.3106,9.627447,1.256553,8.82,0,-999,0,4.7,82.9,4.736,4.756,9.33,1.238,0,6.28,13.57,11.7,101.0631,3.331,3.331,3.329,100,0,0,0,335.8,203,203
"2022-02-20 00:36:00",2817345,10.07733,268.7357,6.002158,0.7172396,11.17,0,8.006,270.3366,6.266113,1.182612,10.6,0,-999,0,4.7,82.8,4.761,4.757,10.12,1.112,0,6.259,13.58,11.83,101.0636,3.334,3.334,3.331,100,0,0,0,335.8,203,203
"2022-02-20 00:37:00",2817346,10.02333,283.2343,8.799166,1.371616,12.59,0,7.169333,277.4633,5.260811,0.7865999,8.87,0,-999,0,4.7,82.5,4.805,4.782,9.5,1.114,0,6.237,13.58,11.14,101.064,3.333,3.334,3.331,100,0,0,0,335.8,203,203
"2022-02-20 00:38:00",2817347,8.925333,283.053,8.700525,0.9310415,10.58,0,7.281333,284.3666,9.632694,1.484798,10.42,0,-999,0,4.7,82.6,4.813,4.808,8.95,1.001,0,6.222,13.58,10.39,101.0616,3.333,3.334,3.333,100,0,0,0,335.8,203,203
"2022-02-20 00:39:00",2817348,8.898666,274.7321,5.504967,1.34437,10.98,0,6.934,276.0863,8.227105,0.952938,8.56,0,-999,0,4.713,82.3,4.833,4.832,9.67,0.832,0,6.205,13.57,11.01,101.0638,3.334,3.334,3.331,100,0,0,0,335.8,203,203
"2022-02-20 00:40:00",2817349,9.788,267.1299,4.316076,1.122154,11.75,0,8.049999,269.8708,6.729696,0.900474,9.62,0,-999,0,4.7,82.5,4.816,4.822,10.53,0.832,0,6.184,13.57,12.14,101.0701,3.334,3.334,3.331,100,0,0,0,335.8,203,203
"2022-02-20 00:41:00",2817350,8.609334,267.737,5.102389,1.06197,10.88,0,6.895334,266.5446,6.37149,1.035895,8.69,0,-999,0,4.7,82.5,4.836,4.821,8.87,0.807,0,6.171,13.57,10.64,101.0748,3.334,3.334,3.331,100,0,0,0,335.8,203,203
"2022-02-20 00:42:00",2817351,8.557333,277.8071,5.63335,1.44664,11.5,0,7.060667,273.6561,11.80881,1.0715,9.66,0,-999,0,4.727,82.6,4.845,4.834,9.34,0.603,0,6.153,13.58,10.33,101.0829,3.331,3.334,3.331,100,0,0,0,335.8,203,203
"2022-02-20 00:43:00",2817352,9.424666,282.7546,8.361649,1.294495,11.66,0,6.350667,281.9194,6.771379,1.317009,9.8,0,-999,0,4.8,82.5,4.851,4.837,8.98,1.286,0,6.134,13.58,11.51,101.0891,3.334,3.334,3.333,100,0,0,0,335.8,203,203
"2022-02-20 00:44:00",2817353,9.364,291.6652,5.409163,0.7534348,10.49,0,6.952001,291.7958,7.59955,0.8629655,9.05,0,-999,0,4.76,82.4,4.817,4.834,8.45,1.531,0,6.134,13.57,12.45,101.0891,3.334,3.334,3.331,100,0,0,0,335.8,203,203
"2022-02-20 00:45:00",2817354,9.73,284.3336,3.977163,0.5815153,10.73,0,6.058,288.2554,6.93726,0.7976649,7.45,0,-999,0,4.8,81.7,4.846,4.834,9.47,0.638,0,6.115,13.57,10.45,101.0831,3.331,3.331,3.331,100,0,0,0,335.8,203,203
"2022-02-20 00:46:00",2817355,10.46533,280.3317,6.558627,1.207548,12.64,0,7.159333,285.9393,5.357357,0.6833788,8.4,0,-999,0,4.8,82,4.839,4.832,10.06,0.796,0,6.109,13.58,11.33,101.0809,3.329,3.331,3.329,100,0,0,0,335.8,203,203
"2022-02-20 00:47:00",2817356,9.848665,283.4649,5.385846,1.398532,12.78,0,7.680666,284.5497,9.323091,1.22777,10.15,0,-999,0,4.767,82.3,4.805,4.817,9.82,1.587,0,6.091,13.58,13.2,101.0946,3.329,3.331,3.329,100,0,0,0,335.8,203,203
"2022-02-20 00:48:00",2817357,10.95533,288.196,7.41592,1.098009,12.72,0,8.200666,285.2686,6.16803,0.9884092,9.35,0,-999,0,4.7,82.1,4.804,4.795,10.77,1.315,0,6.089,13.58,13.26,101.1006,3.328,3.331,3.327,100,0,0,0,335.8,203,203
"2022-02-20 00:49:00",2817358,8.689334,289.8551,5.599824,1.050844,10.69,0,7.081334,287.9949,5.147401,1.082213,8.85,0,-999,0,4.7,81.8,4.796,4.779,9.81,0.297,0,6.068,13.58,10.33,101.1136,3.327,3.328,3.326,100,0,0,0,335.8,203,203
"2022-02-20 00:50:00",2817359,8.231334,289.6013,4.541949,0.8854291,9.43,0,7.006,290.8677,4.43856,0.6537766,8.5,0,-999,0,4.7,81.7,4.8,4.78,8.85,0.77,0,6.068,13.57,10.83,101.1142,3.326,3.327,3.325,100,0,0,0,335.8,203,203
"2022-02-20 00:51:00",2817360,9.963333,290.132,4.49829,0.6445116,10.99,0,8.44,295.2639,6.369073,1.103576,10.05,0,-999,0,4.7,81.7,4.777,4.762,9.17,0.673,0,6.037,13.57,10.58,101.11,3.325,3.327,3.324,100,0,0,0,335.8,203,203
"2022-02-20 00:52:00",2817361,9.693333,286.8679,5.212896,1.339993,12.67,0,7.461333,287.6554,7.626685,1.71872,11.39,0,-999,0,4.7,81,4.801,4.767,9.96,1.703,0,6.025,13.58,12.14,101.1035,3.325,3.325,3.324,100,0,0,0,335.8,203,203
"2022-02-20 00:53:00",2817362,9.294001,289.9995,4.364289,1.35232,11.61,0,7.238667,286.263,6.592874,1.067195,8.97,0,-999,0,4.7,80.8,4.809,4.791,10.36,0.727,0,6.034,13.58,11.83,101.1007,3.324,3.325,3.323,100,0,0,0,335.8,203,203
"2022-02-20 00:54:00",2817363,9.219333,291.6685,5.143633,1.492557,12.18,0,7.486667,293.2709,6.671689,0.7130187,8.71,0,-999,0,4.7,81.4,4.784,4.765,10.31,1.07,0,6.043,13.58,12.2,101.1175,3.324,3.325,3.323,100,0,0,0,335.8,203,203
"2022-02-20 00:55:00",2817364,11.70733,289.6035,10.50177,0.7839683,13.22,0,8.509999,292.5218,11.13429,0.9900369,9.94,0,-999,0,4.7,81,4.809,4.807,10.72,1.107,0,6.025,13.58,12.89,101.1224,3.323,3.324,3.322,100,0,0,0,335.8,203,203
"2022-02-20 00:56:00",2817365,9.949998,285.3333,3.94325,0.7989242,11.1,0,7.364,285.6718,5.857616,0.9474162,9.14,0,-999,0,4.74,80.8,4.831,4.826,9.51,0.762,0,6.025,13.58,10.51,101.1224,3.321,3.323,3.321,100,0,0,0,335.8,203,203
"2022-02-20 00:57:00",2817366,8.378666,289.0007,4.350219,0.4930972,9.14,0,7.459333,290.9369,5.957937,1.567977,9.75,0,-999,0,4.7,81.6,4.805,4.809,9.06,0.664,0,6.006,13.57,10.26,101.1315,3.32,3.322,3.319,100,0,0,0,335.8,203,203
"2022-02-20 00:58:00",2817367,7.380667,287.3667,8.452111,0.734243,8.52,0,5.922668,287.1393,6.883953,0.824447,7.32,0,-999,0,4.74,81.4,4.805,4.816,7.933,1.274,0,6.005,13.57,10.14,101.1318,3.321,3.321,3.32,100,0,0,0,335.8,203,203
"2022-02-20 00:59:00",2817368,6.086,287.7333,6.146665,0.689452,7.78,0,5.579334,288.1824,8.334126,0.990545,7.19,0,-999,0,4.727,82.1,4.791,4.795,6.937,0.465,0,6.005,13.58,7.825,101.1209,3.319,3.32,3.319,100,0,0,0,335.8,203,203
"2022-02-20 01:00:00",2817369,7.142667,282.7263,5.008576,0.5853713,8.18,0,5.473333,286.4665,4.543507,0.6978413,7,0,-999,0,4.7,82.5,4.781,4.795,7.371,0.443,0,6,13.58,8.08,101.1262,3.319,3.32,3.318,100,0,0,0,335.8,203,203
"2022-02-20 01:01:00",2817370,7.202001,283.7313,6.002781,1.043636,8.33,0,4.894667,285.0681,6.359608,0.741205,6.67,0,-999,0,4.7,82.1,4.799,4.798,6.904,1.056,0,5.982,13.57,8.58,101.1417,3.317,3.319,3.317,100,0,0,0,335.8,203,203
"2022-02-20 01:02:00",2817371,5.958,283.93,5.957821,0.5772949,6.84,0,4.88,289.7343,4.05614,0.6048802,6.24,0,-999,0,4.7,82.2,4.776,4.789,6.179,0.653,0,5.982,13.58,7.45,101.1459,3.317,3.318,3.317,100,0,0,0,335.8,203,203
"2022-02-20 01:03:00",2817372,6.672667,289.1852,9.942746,1.169424,8.55,0,4.014667,292.7401,8.658385,0.4759253,5.01,0,-999,0,4.7,82.3,4.755,4.766,5.521,0.504,0,5.976,13.58,6.2,101.147,3.316,3.317,3.316,100,0,0,0,335.8,203,203
"2022-02-20 01:04:00",2817373,7.722,288.0077,5.437057,0.7779477,8.98,0,5.039333,292.5852,5.74824,1.065923,6.74,0,-999,0,4.7,81.9,4.753,4.757,5.429,0.584,0,5.96,13.58,6.325,101.1481,3.316,3.317,3.315,100,0,0,0,335.8,203,203
"2022-02-20 01:05:00",2817374,6.803333,277.1945,7.888368,0.6092581,7.97,0,4.378667,277.822,9.879002,0.6347898,5.97,0,-999,0,4.7,82.1,4.754,4.757,5.487,0.445,0,5.96,13.58,6.075,101.1544,3.315,3.317,3.314,100,0,0,0,335.8,203,203
"2022-02-20 01:06:00",2817375,5.592,274.3371,4.569004,0.3707326,6.35,0,4.058667,272.3953,6.658059,1.006822,6.11,0,-999,0,4.7,82.6,4.759,4.757,5.117,0.535,0,5.96,13.58,6.075,101.1463,3.314,3.315,3.312,100,0,0,0,335.8,203,203
"2022-02-20 01:07:00",2817376,5.966667,272.201,6.12086,0.9008637,7.7,0,4.772,271.6668,9.783417,0.601877,5.52,0,-999,0,4.7,82.7,4.749,4.757,6.867,0.509,0,5.96,13.58,7.95,101.1499,3.312,3.314,3.312,100,0,0,0,335.8,203,203
"2022-02-20 01:08:00",2817377,7.250667,279.399,3.573724,0.7366634,8.45,0,4.818,281.6664,4.755698,0.6721925,5.99,0,-999,0,4.7,82.3,4.778,4.763,6.321,0.985,0,5.958,13.58,7.825,101.1613,3.311,3.312,3.311,100,0,0,0,335.8,203,203
"2022-02-20 01:09:00",2817378,6.428,281.93,7.421356,0.8146509,7.9,0,5.355333,283.6518,6.73231,0.7225868,6.76,0,-999,0,4.7,82,4.805,4.798,6.733,0.693,0,5.958,13.57,7.888,101.1714,3.309,3.311,3.309,100,0,0,0,335.8,203,203
"2022-02-20 01:10:00",2817379,7.742,278.7865,5.579606,1.101503,8.89,0,6.054667,282.1343,7.105669,0.5784908,7.11,0,-999,0,4.7,82.2,4.805,4.809,7.846,0.712,0,5.943,13.58,8.83,101.1694,3.309,3.311,3.309,100,0,0,0,335.8,203,203
"2022-02-20 01:11:00",2817380,7.09,285.4001,3.028435,0.8262607,8.96,0,4.841333,282.9956,4.868547,0.6019952,6.06,0,-999,0,4.727,81.9,4.823,4.822,5.954,0.521,0,5.939,13.58,6.95,101.1735,3.309,3.31,3.308,100,0,0,0,335.8,203,203
"2022-02-20 01:12:00",2817381,5.480667,276.608,7.750817,0.404911,6.05,0,3.856,274.2735,10.91613,0.5590802,5.19,0,-999,0,4.767,82.6,4.812,4.822,5.175,0.282,0,5.939,13.58,5.638,101.1776,3.309,3.309,3.308,100,0,0,0,335.8,203,203
"2022-02-20 01:13:00",2817382,6.309333,262.1992,7.701621,1.234188,8.31,0,5.058,259.3362,9.104474,0.8323156,6.2,0,-999,0,4.7,83.2,4.782,4.804,6.629,1.157,0,5.939,13.58,8.58,101.1703,3.308,3.31,3.308,100,0,0,0,335.8,203,203
"2022-02-20 01:14:00",2817383,6.791333,272.4653,5.236992,0.7000082,8,0,5.435333,275.2491,6.472411,0.8027443,6.93,0,-999,0,4.7,82.4,4.808,4.818,6.829,0.54,0,5.939,13.57,7.638,101.1758,3.307,3.308,3.307,100,0,0,0,335.8,203,203
"2022-02-20 01:15:00",2817384,6.118667,275.5329,4.013335,0.6652205,7.36,0,4.699333,278.8631,6.350751,0.5082974,5.67,0,-999,0,4.74,82.4,4.807,4.823,5.617,0.898,0,5.939,13.57,6.888,101.1812,3.305,3.308,3.305,100,0,0,0,335.8,202.9,203
"2022-02-20 01:16:00",2817385,5.258,266.4598,8.162075,0.6460568,6.59,0,3.969333,271.2087,7.693552,0.5568778,4.71,0,-999,0,4.753,82.6,4.816,4.826,4.696,0.744,0,5.939,13.58,7.013,101.1919,3.305,3.306,3.305,100,0,0,0,335.8,203,203
"2022-02-20 01:17:00",2817386,5.660666,268.7335,7.088025,0.8692408,7.21,0,4.474666,263.0244,9.434596,0.842962,6.28,0,-999,0,4.74,83,4.791,4.804,6.379,0.452,0,5.938,13.58,7.388,101.1917,3.305,3.306,3.304,100,0,0,0,335.8,202.9,203
"2022-02-20 01:18:00",2817387,5.779334,267.6006,5.699491,0.7386335,7.22,0,5.160667,267.5403,6.94111,0.6359819,6.34,0,-999,0,4.7,83.2,4.749,4.762,6.925,0.474,0,5.923,13.58,7.888,101.1923,3.304,3.306,3.304,100,0,0,0,335.8,202.9,203
"2022-02-20 01:19:00",2817388,7.073334,269.3951,6.960168,0.8024019,8.45,0,5.834,275.7802,9.353251,0.9078531,7.49,0,-999,0,4.7,82.9,4.731,4.757,7.287,0.571,0,5.917,13.58,8.14,101.1939,3.304,3.306,3.304,100,0,0,0,335.8,203,203
"2022-02-20 01:20:00",2817389,7.33,273.9259,6.977305,0.8476475,8.99,0,6.231333,273.5734,7.963322,0.9568412,8.34,0,-999,0,4.7,82.3,4.729,4.754,7.612,0.925,0,5.917,13.58,9.01,101.1771,3.303,3.304,3.302,100,0,0,0,335.8,203,203
"2022-02-20 01:21:00",2817390,6.15,281.3607,9.300032,0.7867316,8.19,0,4.814667,276.3394,5.612391,0.6668419,5.94,0,-999,0,4.7,82.2,4.746,4.757,6.433,0.555,0,5.906,13.58,7.2,101.1744,3.302,3.303,3.301,100,0,0,0,335.8,202.9,203
"2022-02-20 01:22:00",2817391,6.74,274.1359,6.93793,0.7486343,8.26,0,6.627333,270.5228,8.099263,1.282526,9.45,0,-999,0,4.7,82.9,4.729,4.75,8.91,0.754,0,5.896,13.58,10.14,101.1852,3.301,3.303,3.301,100,0,0,0,335.8,203,202.9
"2022-02-20 01:23:00",2817392,7.992,281.3392,5.334572,1.397127,10.78,0,6.795334,285.002,4.731383,0.8618652,8.22,0,-999,0,4.7,82.1,4.734,4.749,8.92,0.838,0,5.896,13.58,10.2,101.1883,3.301,3.303,3.301,100,0,0,0,335.8,203,203
"2022-02-20 01:24:00",2817393,9.558,286.3281,4.892248,1.048486,11.75,0,6.854001,283.1411,8.503247,0.915218,8.89,0,-999,0,4.7,81.5,4.775,4.756,8.94,1.292,0,5.917,13.58,10.7,101.1885,3.3,3.302,3.3,100,0,0,0,335.8,203,203
"2022-02-20 01:25:00",2817394,8.216001,287.2161,8.985893,0.7988141,9.49,0,5.949333,287.046,6.674873,0.8147595,7.69,0,-999,0,4.7,81.1,4.804,4.757,8.24,0.896,0,5.902,13.58,10.33,101.19,3.3,3.301,3.3,100,0,0,0,335.8,203,203
"2022-02-20 01:26:00",2817395,8.354666,290.5179,7.109165,0.5569545,9.6,0,5.507333,289.6582,6.534056,0.7474353,7.44,0,-999,0,4.7,81,4.805,4.772,7.796,0.455,0,5.896,13.58,8.33,101.1914,3.3,3.301,3.3,100,0,0,0,335.8,203,203
"2022-02-20 01:27:00",2817396,8.698,288.5304,9.051787,0.7087377,10.5,0,6.619333,289.6526,7.926049,0.8777962,8.27,0,-999,0,4.7,81.3,4.784,4.758,9.13,1.026,0,5.9,13.57,11.14,101.1947,3.3,3.3,3.299,100,0,0,0,335.8,203,203
"2022-02-20 01:28:00",2817397,8.498,290.3352,5.235752,0.6132559,9.6,0,6.946666,293.6753,7.764452,0.9634014,8.95,0,-999,0,4.713,81.1,4.807,4.791,9.02,0.718,0,5.917,13.58,10.33,101.1863,3.299,3.301,3.298,100,0,0,0,335.8,202.9,203
"2022-02-20 01:29:00",2817398,7.515335,285.3306,5.592165,0.7994403,8.76,0,6.416667,290.7168,10.4669,0.863278,8.1,0,-999,0,4.713,80.4,4.837,4.823,6.637,0.361,0,5.917,13.58,7.138,101.1841,3.3,3.3,3.299,100,0,0,0,335.8,202.9,203
"2022-02-20 01:30:00",2817399,7.109334,282.7318,4.565475,0.6717288,8.12,0,5.41,281.0003,5.377191,0.6492354,6.75,0,-999,0,4.78,81.1,4.827,4.823,7.308,1.019,0,5.903,13.58,9.39,101.2071,3.299,3.3,3.298,100,0,0,0,335.8,202.9,203
"2022-02-20 01:31:00",2817400,7.251333,290.9342,6.241679,0.8993765,8.47,0,5.035334,290.8528,5.887587,1.119279,7.83,0,-999,0,4.773,81.7,4.805,4.82,6.9,0.901,0,5.905,13.58,9.08,101.2113,3.298,3.299,3.297,100,0,0,0,335.8,202.9,203
"2022-02-20 01:32:00",2817401,7.159333,281.8018,5.355059,0.620134,8.44,0,4.394667,284.8019,6.839874,0.7266349,5.93,0,-999,0,4.773,81.3,4.805,4.804,7.062,0.774,0,5.917,13.58,8.76,101.2139,3.296,3.298,3.296,100,0,0,0,335.8,202.9,202.9
"2022-02-20 01:33:00",2817402,6.362666,284.3377,5.372866,0.5163263,7.17,0,5.331334,283.2665,4.0897,1.024701,6.92,0,-999,0,4.7,82.2,4.772,4.794,7.004,0.809,0,5.917,13.57,8.64,101.2218,3.294,3.296,3.294,100,0,0,0,335.8,202.9,202.9
"2022-02-20 01:34:00",2817403,5.319333,284.5403,6.476332,0.4911818,5.84,0,5.079333,285.733,5.602761,0.5462658,6.4,0,-999,0,4.7,82.2,4.767,4.784,6.058,0.47,0,5.899,13.58,6.95,101.2126,3.296,3.297,3.294,100,0,0,0,335.8,202.9,202.9
"2022-02-20 01:35:00",2817404,5.038667,285.8075,6.789374,0.5151551,6.21,0,4.641334,285.2847,8.063426,0.6032122,5.8,0,-999,0,4.7,82.3,4.745,4.762,6.208,0.366,0,5.896,13.58,6.888,101.2041,3.294,3.297,3.294,100,0,0,0,335.8,202.9,202.9
"2022-02-20 01:36:00",2817405,4.956001,287.3364,4.00959,0.368995,5.66,0,3.393333,284.8812,6.859974,0.536975,4.36,0,-999,0,4.7,82.8,4.729,4.757,5.383,0.983,0,5.887,13.58,7.138,101.2106,3.296,3.296,3.294,100,0,0,0,335.8,202.9,202.9
"2022-02-20 01:37:00",2817406,5.418667,289.2034,6.303389,0.5110886,6.02,0,3.666667,291.1934,4.380468,0.3111198,4.24,0,-999,0,4.7,83.1,4.721,4.747,5.246,0.467,0,5.887,13.58,6.075,101.2211,3.293,3.296,3.293,100,0,0,0,335.8,202.9,202.9
"2022-02-20 01:38:00",2817407,5.965333,284.5381,5.581989,0.724632,7.67,0,4.438667,283.6667,4.435526,0.6183835,5.35,0,-999,0,4.7,83,4.708,4.75,5.712,0.459,0,5.881,13.58,6.388,101.2245,3.292,3.296,3.291,100,0,0,0,335.8,202.9,202.9
"2022-02-20 01:39:00",2817408,6.408667,279.4722,5.055678,0.5197803,7.19,0,5.054,287.7432,7.573501,0.7095238,6.3,0,-999,0,4.7,82.6,4.729,4.756,5.983,0.808,0,5.878,13.58,7.013,101.2277,3.293,3.293,3.292,100,0,0,0,335.8,202.9,202.9
"2022-02-20 01:40:00",2817409,4.803334,279.8004,7.220585,0.5457065,5.96,0,3.910666,279.53,5.97247,0.430201,4.56,0,-999,0,4.7,82.2,4.752,4.757,5.512,0.469,0,5.89,13.58,6.513,101.2261,3.293,3.294,3.292,100,0,0,0,335.8,202.9,202.9
"2022-02-20 01:41:00",2817410,5.086,284.1402,6.75938,0.4511732,5.87,0,4.561333,289.7436,6.281392,0.4719728,5.21,0,-999,0,4.7,82.5,4.743,4.757,5.187,0.306,0,5.899,13.58,5.575,101.2259,3.292,3.294,3.292,100,0,0,0,335.8,202.9,202.9
"2022-02-20 01:42:00",2817411,5.576666,285.804,4.76105,0.5537589,6.65,0,3.89,284.2008,4.66452,0.6148061,5.14,0,-999,0,4.7,82.5,4.732,4.757,5.571,0.179,0,5.9,13.57,5.888,101.2166,3.291,3.293,3.291,100,0,0,0,335.8,202.9,202.9
"2022-02-20 01:43:00",2817412,5.546,279.8617,6.364109,0.5788126,7.05,0,3.576,280.5778,9.068461,0.366566,4.58,0,-999,0,4.7,82.9,4.729,4.757,5.254,0.456,0,5.874,13.58,6.075,101.2211,3.292,3.292,3.29,100,0,0,0,335.8,202.9,202.9
"2022-02-20 01:44:00",2817413,6.711999,286.7351,4.491731,0.6418847,8.08,0,4.446666,289.5296,5.604396,0.8959736,6.09,0,-999,0,4.7,83,4.736,4.757,6.421,0.706,0,5.875,13.58,7.513,101.2284,3.291,3.292,3.29,100,0,0,0,335.8,202.9,202.9
"2022-02-20 01:45:00",2817414,5.115334,282.3923,5.709339,0.6844645,6.27,0,4.162667,285.4005,3.157568,0.4418818,4.93,0,-999,0,4.7,82.4,4.768,4.758,5.546,0.476,0,5.874,13.58,6.45,101.2332,3.292,3.292,3.29,100,0,0,0,335.8,202.9,202.9